Weather History for Akron Canton, OH

Change the Weather History Date:

Wednesday, January 2, 2013

  Actual Average Record
Temperature  
Mean Temperature 16 °F 27 °F  
Max Temperature 22 °F 33 °F 63 °F (2000)
Min Temperature 10 °F 20 °F -4 °F (1979)
Degree Days  
Heating Degree Days 49 38  
Month to date heating degree days 87 76  
Since 1 July heating degree days 2233 2406  
Cooling Degree Days 0 0  
Month to date cooling degree days 0 0  
Year to date cooling degree days 0 0  
Moisture  
Dew Point 10 °F    
Average Humidity 75    
Maximum Humidity 88    
Minimum Humidity 61    
Precipitation  
Precipitation 0.00 in 0.09 in 0.75 in (1965)
Month to date precipitation 0.03 0.18  
Year to date precipitation 0.03 0.18  
Snow  
Snow 0.00 in 0.40 in - ()
Month to date snowfall 0.3 0.8  
Since 1 July snowfall 14.6 14.4  
Snow Depth 6.00 in    
Sea Level Pressure  
Sea Level Pressure 30.18 in    
Wind  
Wind Speed 4 mph (WSW)    
Max Wind Speed 12 mph    
Max Gust Speed 17 mph    
Visibility 7 miles    
Events      
T = Trace of Precipitation, MM = Missing Value Source: NWS Daily Summary

Daily Weather History Graph

Daily Weather History Graph

Search for Another Location

Airport:

Trip Planner

Search our weather history database for the weather conditions in past years. The results will help you decide how hot, cold, wet, or windy it might be!

Date:

Astronomy

Jan. 02, 2013 Rise Set
Actual Time 7:50 AM EST 5:09 PM EST
Civil Twilight 7:19 AM EST 5:40 PM EST
Nautical Twilight 6:45 AM EST 6:14 PM EST
Astronomical Twilight 6:11 AM EST 6:48 PM EST
Moon 10:43 PM EST (1/2) 10:29 AM EST (1/2)
Length of Visible Light 10h 20m
Length of Day
9h 19m
Waning Gibbous, 75% of the Moon is Illuminated
Jan 2
Waning Gibbous
Jan 4
Last Quarter
Jan 11
New
Jan 18
First Quarter
Jan 26
Full

Hourly Weather History & Observations

Time (EST) Temp. Windchill Dew Point Humidity Pressure Visibility Wind Dir Wind Speed Gust Speed Precip Events Conditions
12:43 AM 19.4 °F 10.4 °F 8.6 °F 63% 30.05 in 9.0 mi WNW 6.9 mph - N/A   Scattered Clouds
12:51 AM 19.0 °F 10.0 °F 9.0 °F 65% 30.10 in 9.0 mi NW 6.9 mph - N/A   Partly Cloudy
1:51 AM 19.9 °F 12.1 °F 8.1 °F 60% 30.11 in 8.0 mi WNW 5.8 mph - N/A   Partly Cloudy
2:51 AM 17.1 °F 11.7 °F 9.0 °F 71% 30.12 in 7.0 mi West 3.5 mph - N/A   Scattered Clouds
3:51 AM 16.0 °F - 8.1 °F 71% 30.12 in 7.0 mi Calm Calm - N/A   Scattered Clouds
4:51 AM 17.1 °F 11.7 °F 7.0 °F 65% 30.13 in 6.0 mi WSW 3.5 mph - N/A   Haze
5:51 AM 12.0 °F 5.9 °F 8.1 °F 84% 30.15 in 6.0 mi SSW 3.5 mph - N/A   Partly Cloudy
6:51 AM 10.0 °F 1.8 °F 7.0 °F 87% 30.16 in 5.0 mi WSW 4.6 mph - N/A   Scattered Clouds
7:51 AM 10.9 °F 2.9 °F 6.1 °F 81% 30.17 in 5.0 mi West 4.6 mph - N/A   Haze
8:51 AM 10.9 °F 2.9 °F 7.0 °F 84% 30.18 in 5.0 mi SSW 4.6 mph - N/A   Mostly Cloudy
9:51 AM 13.1 °F 4.0 °F 10.0 °F 88% 30.20 in 5.0 mi SW 5.8 mph - N/A   Mostly Cloudy
10:51 AM 16.0 °F 6.3 °F 10.9 °F 81% 30.22 in 6.0 mi WSW 6.9 mph - N/A   Haze
11:51 AM 17.6 °F 6.4 °F 14.0 °F 86% 30.16 in 6.0 mi West 9.2 mph - N/A   Mostly Cloudy
12:23 PM 19.4 °F 10.4 °F 12.2 °F 74% 30.16 in 7.0 mi Variable 6.9 mph - N/A   Mostly Cloudy
12:51 PM 21.0 °F 14.6 °F 12.0 °F 68% 30.21 in 7.0 mi West 4.6 mph - N/A   Overcast
1:51 PM 19.9 °F 10.1 °F 13.1 °F 75% 30.21 in 7.0 mi West 8.1 mph - N/A   Mostly Cloudy
2:37 PM 21.2 °F - 12.2 °F 68% 30.14 in 8.0 mi Calm Calm - N/A   Mostly Cloudy
2:51 PM 21.0 °F - 12.0 °F 68% 30.20 in 8.0 mi Calm Calm - N/A   Mostly Cloudy
3:51 PM 21.9 °F 13.4 °F 10.9 °F 63% 30.22 in 7.0 mi SW 6.9 mph - N/A   Mostly Cloudy
4:51 PM 19.2 °F 12.5 °F 9.9 °F 67% 30.22 in 7.0 mi SW 4.6 mph - N/A   Mostly Cloudy
5:51 PM 18.7 °F - 12.9 °F 78% 30.23 in 7.0 mi Calm Calm - N/A   Mostly Cloudy
6:51 PM 18.3 °F - 12.4 °F 78% 30.24 in 7.0 mi Calm Calm - N/A   Mostly Cloudy
7:51 PM 18.3 °F 13.1 °F 11.7 °F 75% 30.25 in 7.0 mi WNW 3.5 mph - N/A   Mostly Cloudy
8:51 PM 17.8 °F 10.9 °F 13.6 °F 84% 30.25 in 6.0 mi WNW 4.6 mph - N/A   Mostly Cloudy
9:51 PM 15.3 °F - 11.8 °F 86% 30.26 in 6.0 mi Calm Calm - N/A   Mostly Cloudy
10:51 PM 15.4 °F - 12.2 °F 87% 30.26 in 6.0 mi Calm Calm - N/A   Scattered Clouds
11:51 PM 16.0 °F - 8.1 °F 71% 30.24 in 5.0 mi Calm Calm - N/A   Haze